www.pogodaiklimat.ru

Архив погоды в Варшаве (Польша)

Время
(UTC), дата
16 13.05
17 13.05
18 13.05
19 13.05
20 13.05
21 13.05
22 13.05
23 13.05
00 14.05
01 14.05
02 14.05
03 14.05
04 14.05
05 14.05
06 14.05
07 14.05
08 14.05
09 14.05
10 14.05
11 14.05
12 14.05
13 14.05
14 14.05
15 14.05
16 14.05
17 14.05
18 14.05
19 14.05
20 14.05
21 14.05
22 14.05
23 14.05
00 15.05
01 15.05
02 15.05
03 15.05
04 15.05
05 15.05
06 15.05
07 15.05
08 15.05
09 15.05
10 15.05
11 15.05
12 15.05
13 15.05
14 15.05
15 15.05
16 15.05
17 15.05
18 15.05
19 15.05
20 15.05
21 15.05
22 15.05
23 15.05
00 16.05
01 16.05
02 16.05
03 16.05
04 16.05
05 16.05
06 16.05
07 16.05
08 16.05
09 16.05
10 16.05
11 16.05
12 16.05
13 16.05
14 16.05
15 16.05
16 16.05
17 16.05
18 16.05
19 16.05
20 16.05
21 16.05
22 16.05
23 16.05
00 17.05
01 17.05
02 17.05
03 17.05
04 17.05
05 17.05
06 17.05
07 17.05
08 17.05
09 17.05
10 17.05
11 17.05
12 17.05
13 17.05
14 17.05
15 17.05
16 17.05
17 17.05
18 17.05
19 17.05
20 17.05
21 17.05
22 17.05
23 17.05
00 18.05
01 18.05
02 18.05
03 18.05
04 18.05
05 18.05
06 18.05
07 18.05
08 18.05
09 18.05
10 18.05
11 18.05
12 18.05
13 18.05
14 18.05
15 18.05
16 18.05
17 18.05
18 18.05
19 18.05
20 18.05
21 18.05
22 18.05
23 18.05
00 19.05
01 19.05
02 19.05
03 19.05
04 19.05
05 19.05
06 19.05
07 19.05
08 19.05
09 19.05
10 19.05
11 19.05
12 19.05
13 19.05
14 19.05
15 19.05
16 19.05
17 19.05
18 19.05
19 19.05
20 19.05
21 19.05
22 19.05
23 19.05
00 20.05
01 20.05
02 20.05
03 20.05
04 20.05
05 20.05
06 20.05
07 20.05
08 20.05
09 20.05
10 20.05
11 20.05
12 20.05
13 20.05
14 20.05
15 20.05
16 20.05
Ветер
(напр.,м/с)
Видим. Явления Облачность Т
(С)
Тd
(С)
f
(%)
Тe
(С)
Тes
(С)
Комфортность P
(гПа)
Po
(гПа)
Тmin
(С)
Tmax
(С)
R
(мм)
R24
(мм)
S
(см)
СВ 2 35 км 1/0
[Ci fib]
+19.8 +0.2 27 +21 +23 комфорт 1018.2 1005.7
СВ 3 35 км 1/0
[Ci fib]
+18.9 +0.5 29 +19 +20 тепло 1018.3 1005.7
В 3 35 км 4/0
[Ci fib]
+16.7 +0.3 33 +17 +17 тепло 1018.4 1005.7 +13.0 +21.1
ЮВ 1 35 км 4/0
[Ci fib]
+16.4 +0.9 35 +17 +17 тепло 1018.5 1005.8
ЮВ 1 35 км 4/0
[Ci fib]
+12.8 +2.6 50 +13 +13 по сезону 1018.7 1005.9
ЮВ 1 35 км 1/0
[Ci fib]
+11.8 +2.5 53 +12 +12 по сезону 1018.8 1005.9
штиль 0 35 км ясно +10.6 +2.9 59 +10 +10 по сезону 1018.8 1005.9
штиль 0 35 км ясно +9.1 +3.1 66 +9 +9 по сезону 1018.8 1005.8
штиль 0 35 км ясно +8.0 +3.1 71 +7 +7 по сезону 1018.8 1005.7
ЮВ 1 35 км ясно +9.3 +3.7 68 +9 +9 по сезону 1018.7 1005.7
ЮВ 1 35 км 1/0
[Ci sp]
+7.9 +3.9 76 +7 +7 по сезону 1018.8 1005.7
ЮВ 1 35 км 1/0
[Ci sp]
+7.4 +4.0 79 +7 +7 прохладно 1018.9 1005.8
ЮВ 1 35 км 1/0
[Ci sp]
+10.7 +4.2 64 +11 +11 тепло 1018.9 1006.0
В 2 35 км 1/0
[Ci sp]
+14.3 +4.0 50 +14 +16 тепло 1018.8 1006.0
В 2 35 км 1/0
[Ci sp]
+16.3 +2.7 40 +17 +21 тепло 1018.9 1006.2 +6.8 +16.7
СВ 2 35 км 1/0
[Ci fib]
+17.8 +2.5 36 +18 +26 тепло 1018.9 1006.3
В 3 35 км 1/1 1500 м
[Cu hum]
+19.4 +2.7 33 +20 +29 тепло 1018.8 1006.2
В 4 35 км 4/3 1500 м
[Cu hum Ac trans]
+20.1 +1.0 28 +20 +26 тепло 1018.4 1005.9
В 3 {8} 35 км 4/4 2000 м
[Cu hum]
+21.2 +1.4 27 +21 +29 комфорт 1018.3 1005.8
В 3 35 км 5/5 2000 м
[Cu med, cong]
+21.9 +3.0 29 +22 +28 комфорт 1017.9 1005.5
СВ 4 {8} 35 км 9/5 2000 м
[Sc diur, vesp Ac trans]
+21.1 +2.4 29 +21 +24 комфорт 1017.7 1005.2
В 4 35 км 9/3 2000 м
[Sc diur, vesp Ac trans]
+20.9 +2.7 30 +21 +24 комфорт 1017.5 1005.0
ЮВ 3 {9} 35 км 9/3 2000 м
[Sc diur, vesp Ac trans]
+21.0 +2.3 29 +22 +24 комфорт 1017.4 1004.9
В 3 {9} 35 км 9/0
[Ac trans]
+20.4 +2.7 31 +21 +23 комфорт 1017.5 1005.0
ЮВ 4 35 км 9/0
[Ac trans]
+20.2 +2.5 31 +21 +22 комфорт 1017.3 1004.8
ЮВ 4 35 км 8/3 2000 м
[Sc Ac trans]
+19.4 +3.1 34 +20 +20 тепло 1017.5 1005.0
ЮВ 4 {9} 35 км 6/0
[Ac trans Ci fib]
+17.8 +2.9 37 +18 +18 тепло 1017.9 1005.3 +16.3 +22.6
В 3 35 км 3/0
[Ac trans]
+15.8 +3.2 43 +15 +15 по сезону 1018.6 1005.9
ЮВ 3 35 км 1/0
[Ac trans]
+15.1 +3.9 47 +15 +15 тепло 1018.9 1006.2
ЮВ 3 35 км ясно +13.8 +4.1 52 +13 +13 по сезону 1019.6 1006.8
ЮВ 4 35 км ясно +12.6 +4.0 56 +11 +11 по сезону 1020.0 1007.1
ЮВ 3 35 км ясно +12.2 +4.2 58 +11 +11 тепло 1020.2 1007.3
ЮВ 3 35 км ясно +11.1 +3.9 61 +9 +9 по сезону 1020.3 1007.4
ЮВ 3 35 км ясно +10.3 +3.1 61 +8 +8 по сезону 1020.5 1007.5
ЮВ 2 35 км 1/0
[Ac trans]
+9.7 +2.8 62 +8 +8 тепло 1020.6 1007.6
В 2 35 км 1/0
[Ci fib]
+8.2 +2.4 67 +7 +7 прохладно 1021.0 1007.9
В 3 35 км 1/0
[Ci fib]
+9.9 +2.3 59 +8 +9 по сезону 1021.1 1008.1
В 4 35 км 1/0
[Ci fib]
+11.8 +2.3 52 +10 +12 тепло 1021.4 1008.5
В 5 35 км 1/0
[Ci fib]
+14.0 +1.3 42 +13 +15 по сезону 1021.4 1008.6 +8.0 +17.8
В 7 35 км 1/0
[Ci fib]
+16.2 +1.1 36 +15 +17 тепло 1021.4 1008.7
В 7 {13} 35 км 1/0
[Ci fib]
+16.7 +1.5 36 +16 +19 тепло 1021.3 1008.6
В 7 {13} 35 км 1/0
[Ci fib]
+17.3 +0.4 32 +16 +20 по сезону 1021.2 1008.5
ЮВ 7 {13} 35 км 1/0
[Ci fib]
+18.2 +0.3 30 +18 +22 тепло 1021.1 1008.5
ЮВ 6-11 {11} 35 км 1/0
[Ci fib]
+18.5 +0.1 29 +18 +24 тепло 1020.9 1008.3
ЮВ 6-12 {13} 35 км 1/0
[Ci fib]
+19.1 +0.1 28 +19 +24 тепло 1020.6 1008.0
В 7 35 км 3/1 2000 м
[Sc Ci fib]
+20.2 +2.1 30 +20 +23 тепло 1020.2 1007.7
ЮВ 6 {12} 35 км 3/1 2000 м
[Sc Ci fib]
+19.4 +0.9 29 +19 +22 тепло 1020.1 1007.5
В 7 {12} 35 км 1/0
[Ci fib]
+19.5 +1.0 29 +19 +21 тепло 1019.8 1007.2
В 6 {11} 35 км 1/0
[Ci fib]
+19.4 +1.4 30 +19 +20 тепло 1019.7 1007.1
В 7 {10} 35 км 3/0
[Ci fib]
+18.3 +0.9 31 +18 +18 тепло 1019.9 1007.3
ЮВ 5 {12} 35 км 3/0
[Ci fib]
+17.0 +1.4 35 +16 +16 по сезону 1020.1 1007.4 +14.0 +20.7
В 4 35 км 3/0
[Ci fib]
+15.4 +1.5 39 +15 +15 по сезону 1020.4 1007.7
В 4 35 км 1/0
[Ci fib]
+13.7 +2.3 46 +12 +12 по сезону 1020.7 1007.9
В 4 35 км ясно +12.9 +1.8 47 +11 +11 по сезону 1021.1 1008.2
В 4 35 км ясно +12.6 +1.3 46 +11 +11 по сезону 1021.3 1008.4
В 4 35 км ясно +10.9 +1.1 51 +9 +9 по сезону 1021.6 1008.6
В 3 35 км ясно +10.1 +1.2 54 +8 +8 по сезону 1021.8 1008.8
В 4 35 км 3/0
[Ci sp]
+9.5 +0.9 55 +7 +7 по сезону 1021.7 1008.7
В 4 35 км 5/0
[Ci sp]
+9.1 +0.8 56 +7 +7 тепло 1021.6 1008.6
В 4 35 км 8/0
[Cs]
+9.2 +0.9 56 +7 +7 по сезону 1021.7 1008.7
В 5 35 км 9/0
[Cs]
+9.9 +0.8 53 +7 +7 по сезону 1021.9 1008.9
В 5 35 км 9/0
[Cs]
+11.5 +1.4 50 +9 +10 тепло 1021.9 1009.0
В 6 35 км 9/0
[Cs]
+13.8 +2.1 45 +12 +14 по сезону 1022.0 1009.2 +8.8 +17.0
В 6 35 км 8/0
[Cs]
+16.3 +2.3 39 +15 +18 тепло 1022.1 1009.4
ЮВ 7 {13} 35 км 8/0
[Cs]
+17.2 +1.2 34 +16 +19 тепло 1022.0 1009.3
В 7 {14} 35 км 6/0
[Cs]
+19.2 +0.7 29 +19 +22 тепло 1021.6 1009.0
ЮВ 7-12 {14} 35 км 5/0
[Ci sp]
+19.0 +1.0 30 +19 +23 тепло 1021.4 1008.8
В 8 {12} 35 км 5/0
[Ci sp]
+19.7 -0.4 26 +19 +22 тепло 1021.1 1008.5
В 8-13 {14} 35 км 5/0
[Ci sp]
+20.6 +0.4 26 +20 +23 тепло 1020.6 1008.1
В 8 {15} 35 км 4/0
[Ci sp]
+21.6 +1.8 27 +21 +23 комфорт 1020.1 1007.6
В 8-14 {14} 35 км 3/0
[Ci fib]
+21.0 +0.7 26 +21 +22 комфорт 1019.7 1007.2
ЮВ 7-12 {15} 35 км 1/0
[Ci fib]
+20.7 -0.1 25 +20 +22 тепло 1019.6 1007.1
ЮВ 7-13 {13} 35 км ясно +20.4 -0.3 25 +20 +21 тепло 1019.5 1007.0
ЮВ 6 35 км ясно +19.6 +0.1 27 +19 +20 тепло 1019.5 1006.9
В 5 {15} 35 км ясно +18.3 -0.1 29 +18 +18 тепло 1019.6 1007.0 +13.8 +22.0
В 5 35 км ясно +16.5 -0.3 32 +16 +16 тепло 1020.3 1007.6
В 6 35 км ясно +15.9 0.0 34 +15 +15 тепло 1020.3 1007.6
В 5 35 км ясно +14.5 0.0 37 +13 +13 тепло 1020.5 1007.7
В 5 35 км ясно +13.4 +0.4 41 +12 +12 тепло 1020.5 1007.7
В 5 35 км ясно +12.4 +0.2 43 +10 +10 тепло 1020.7 1007.8
В 5 35 км ясно +11.6 +0.1 45 +9 +9 по сезону 1021.0 1008.1
В 4 35 км ясно +10.5 +0.2 49 +8 +8 тепло 1020.9 1007.9
В 4 35 км ясно +9.6 +0.5 53 +7 +7 тепло 1020.6 1007.6
В 4 35 км ясно +9.2 +0.6 55 +7 +7 по сезону 1020.4 1007.4
В 5 35 км ясно +10.7 +1.0 51 +8 +9 тепло 1020.5 1007.5
В 6 35 км ясно +12.6 +1.3 46 +10 +11 тепло 1020.1 1007.2
В 6 35 км ясно +15.1 +1.6 40 +14 +16 тепло 1020.0 1007.2 +9.0 +18.3
В 9 35 км ясно +17.3 +0.9 33 +16 +17 тепло 1019.6 1006.9
В 9 {14} 35 км ясно +18.3 +0.9 31 +17 +19 тепло 1019.3 1006.7
В 9 {17} 35 км ясно +19.5 +0.5 28 +19 +20 тепло 1019.0 1006.4
ЮВ 8 {12} 35 км ясно +20.0 +0.9 28 +20 +23 тепло 1018.7 1006.2
ЮВ 7-12 {15} 35 км ясно +20.9 +0.7 26 +21 +25 комфорт 1018.2 1005.7
В 8-14 {17} 35 км ясно +21.6 +0.7 25 +21 +24 комфорт 1017.4 1005.0
В 10-15 {15} 35 км ясно +21.8 +0.9 25 +21 +22 комфорт 1016.6 1004.2
В 7-13 {14} 35 км ясно +22.6 +2.1 26 +22 +25 комфорт 1016.0 1003.6
В 8-13 {15} 35 км ясно +22.3 +1.3 25 +22 +23 комфорт 1015.7 1003.3
В 7 {13} 35 км ясно +21.8 +2.0 27 +22 +22 комфорт 1015.5 1003.1
В 8 {14} 35 км ясно +20.9 +2.2 29 +21 +21 комфорт 1015.5 1003.1
ЮВ 5 {15} 35 км ясно +19.5 +2.4 32 +20 +20 тепло 1015.7 1003.2 +15.0 +23.0
В 4 35 км ясно +17.8 +3.3 38 +18 +18 тепло 1016.0 1003.4
В 4 35 км ясно +15.8 +3.6 44 +15 +15 тепло 1015.9 1003.2
В 5 35 км ясно +15.6 +3.4 44 +15 +15 тепло 1015.6 1002.9
В 4 35 км ясно +14.8 +3.3 46 +14 +14 тепло 1015.7 1003.0
В 3 35 км ясно +13.0 +3.4 52 +12 +12 тепло 1015.7 1002.9
В 3 35 км ясно +11.8 +3.5 57 +10 +10 тепло 1015.5 1002.7
В 2 35 км ясно +11.5 +3.8 59 +11 +11 тепло 1015.4 1002.5
В 3 35 км ясно +10.5 +3.5 62 +9 +9 тепло 1015.3 1002.4
В 2 35 км ясно +10.2 +3.7 64 +9 +9 тепло 1015.4 1002.5
В 3 35 км ясно +11.8 +4.5 61 +10 +11 тепло 1015.7 1002.9
В 4 35 км 1/0
[Ci fib]
+14.5 +4.2 50 +13 +15 тепло 1015.7 1003.0
ЮВ 3 35 км 1/0
[Ci fib]
+16.8 +5.7 48 +17 +21 тепло 1015.6 1003.0 +10.1 +19.5
В 3 35 км 1/0
[Ci fib]
+18.4 +5.6 43 +19 +26 тепло 1015.6 1003.0
В 5 35 км 1/0
[Ci fib]
+20.1 +5.7 39 +21 +27 комфорт 1015.4 1002.9
ЮВ 5 {11} 35 км 1/0
[Ci fib]
+20.6 +5.4 37 +21 +29 комфорт 1015.3 1002.8
ЮВ 6 35 км 3/1 1500 м
[Cu hum Ci fib]
+22.4 +5.8 34 +23 +28 комфорт 1015.0 1002.6
ЮВ 4 35 км 4/3 1500 м
[Cu hum Ci fib]
+22.2 +6.0 35 +23 +30 комфорт 1014.7 1002.3
ЮВ 4 {11} 35 км 5/3 1500 м
[Cu hum Ac trans Ci fib]
+23.2 +5.1 31 +23 +29 комфорт 1014.4 1002.1
ЮВ 3 35 км 6/4 1500 м
[Cu hum Ac trans Ci fib]
+23.2 +6.0 33 +24 +29 комфорт 1014.0 1001.7
ЮВ 3 {8} 35 км 6/4 1500 м
[Cu med, cong Ac trans Ci fib]
+23.3 +7.0 35 +24 +28 комфорт 1013.6 1001.3
ЮВ 3 {8} 35 км 6/4 1500 м
[Cu med, cong Ac trans Ci fib]
+23.2 +6.9 35 +24 +26 комфорт 1013.2 1000.9
ЮВ 2 35 км 8/4 1500 м
[Cb calv Ac trans Ci fib]
+22.0 +7.4 39 +23 +24 комфорт 1013.0 1000.6
ЮЗ 2 35 км в посл. час ливневой дождь 8/5 1500 м
[Cb calv Ci fib]
+18.9 +10.7 59 +20 +21 тепло 1013.8 1001.3
Ю 1 {8} 35 км {ливн. дождь} 6/3 1500 м
[Cu med, cong Ci ing]
+17.4 +11.4 68 +18 +19 тепло 1013.9 1001.3 +16.3 +24.2 1
ЮВ 1 35 км 5/0
[Ac trans Ci sp]
+15.9 +10.9 72 +17 +17 тепло 1014.1 1001.5
ЮВ 2 35 км 4/0
[Ac trans Ci sp]
+15.8 +9.9 68 +16 +16 тепло 1014.3 1001.6
ЮВ 2 35 км 4/0
[Ac trans]
+14.6 +9.6 72 +14 +14 тепло 1014.5 1001.8
ЮВ 1 35 км 8/0
[Ac trans]
+15.3 +9.9 70 +16 +16 тепло 1014.4 1001.7
ЮВ 2 35 км 9/0
[Ac trans]
+14.9 +10.3 74 +15 +15 тепло 1014.3 1001.6
ЮВ 2 35 км 4/0
[Ac trans Ci sp]
+14.3 +10.3 77 +14 +14 тепло 1014.2 1001.5
ЮВ 2 35 км 4/0
[Ac trans Ci sp]
+13.3 +9.9 80 +13 +13 тепло 1014.2 1001.4
ЮВ 2 35 км 4/0
[Ac trans Ci sp]
+12.9 +9.5 80 +12 +12 тепло 1014.0 1001.2
ЮВ 2 35 км 4/0
[Ac trans]
+12.4 +9.6 83 +11 +11 тепло 1013.9 1001.1
ЮВ 2 35 км 5/0
[Ac trans Ci sp]
+13.2 +10.0 81 +12 +13 тепло 1014.2 1001.4
ЮВ 3 35 км 6/0
[Ac trans Ci sp]
+14.5 +10.5 77 +14 +15 тепло 1014.2 1001.5
ЮВ 3 35 км 6/0
[Ac trans Ci sp]
+16.9 +11.4 70 +17 +20 тепло 1014.1 1001.5 +12.0 +17.4 1.2
ЮВ 4 35 км 6/0
[Ac trans Ci sp]
+19.0 +11.1 60 +20 +24 тепло 1014.1 1001.6
ЮВ 5 35 км 5/1 1000 м
[Cu hum Ac trans Ci sp]
+20.9 +8.8 46 +22 +27 комфорт 1013.8 1001.4
ЮВ 5 35 км 5/1 1500 м
[Cu hum Ac trans Ci sp]
+22.1 +6.7 37 +23 +28 комфорт 1013.5 1001.1
ЮВ 4 {10} 35 км 5/1 1500 м
[Cu hum Ac trans Ci sp]
+22.9 +6.6 35 +24 +31 комфорт 1013.1 1000.8
ЮВ 4 35 км 6/3 2000 м
[Sc Ac trans Ci sp]
+22.6 +4.6 31 +23 +29 комфорт 1012.7 1000.4
ЮВ 4-9 {10} 35 км 5/3 2000 м
[Sc Ci sp]
+22.9 +5.3 32 +23 +30 комфорт 1012.4 1000.1
В 4 {9} 35 км 5/3 2000 м
[Sc Ci sp]
+23.4 +4.3 29 +23 +29 комфорт 1011.8 999.5
В 4 35 км 6/3 2000 м
[Sc Ci ing]
+23.5 +4.9 30 +23 +27 комфорт 1011.3 999.0
ЮВ 2 {9} 35 км 8/4 2000 м
[Sc Ci ing]
+22.7 +6.0 34 +23 +26 комфорт 1011.3 999.0
З 4 {7} 35 км 9/5 1500 м
[Sc Ac trans Ci sp]
+19.0 +9.2 53 +20 +20 тепло 1011.5 999.0
З 2 35 км 9/3 1500 м
[Sc Ac As]
+18.4 +10.2 59 +19 +20 тепло 1011.3 998.8
СЗ 1 {9} 35 км 9/0
[Ac trans Ci sp]
+18.2 +10.8 62 +20 +20 тепло 1011.2 998.7 +16.9 +24.4
Ю 2 35 км 9/0
[Ac trans]
+18.6 +10.4 59 +20 +20 тепло 1011.3 998.8
ЮЗ 1 35 км 9/0
[Ac trans]
+17.0 +10.8 67 +18 +18 тепло 1011.7 999.1
ЮЗ 1 35 км 9/0
[Ac trans]
+17.5 +11.3 67 +19 +19 тепло 1011.6 999.1
З 1 35 км 9/0
[Ac trans]
+17.3 +11.3 68 +18 +18 тепло 1011.7 999.1
З 3 35 км 9/5 1500 м
[Sc Ac trans]
+16.4 +11.3 72 +16 +16 тепло 1012.2 999.6
З 2 35 км 9/3 1500 м
[Sc Ac trans]
+15.4 +11.4 77 +15 +15 тепло 1012.0 999.4
С 2 11 км слаб. ливневой дождь 9/6 1500 м
[Cb calv Ac trans]
+14.8 +11.8 82 +14 +14 тепло 1011.9 999.2
С 2 35 км в посл. час ливневой дождь 9/0
[Ac trans]
+14.7 +11.8 83 +14 +14 тепло 1011.7 999.0
З 1 35 км {ливн. дождь} 9/0
[Ac trans]
+15.4 +12.2 81 +16 +16 тепло 1011.7 999.1
СЗ 1 25 км 9/0
[Ac trans]
+15.9 +12.3 79 +17 +17 тепло 1012.1 999.5
В 2 35 км 9/3 1500 м
[Sc Ac trans]
+17.7 +13.2 75 +18 +19 тепло 1012.1 999.6
В 1 35 км {ливн. дождь} 8/4 1500 м
[Sc Ac trans]
+18.0 +12.0 68 +19 +21 тепло 1012.6 1000.1 +14.2 +18.7 0.2 0.2
В 1 35 км 8/3 1500 м
[Cu med, cong Ci sp]
+19.9 +12.4 62 +23 +29 комфорт 1012.7 1000.2
ЮВ 1 35 км 8/3 1500 м
[Cu med, cong Ac trans Ci sp]
+20.6 +10.7 53 +23 +30 комфорт 1012.8 1000.4
ЮЗ 1 35 км 8/3 1000 м
[Cu med, cong Cs]
+22.2 +11.0 49 +24 +34 комфорт 1012.9 1000.5
ЮВ 1 35 км 9/3 1000 м
[Cu med, cong Ac trans Cs]
+22.8 +11.5 49 +25 +33 комфорт 1012.7 1000.4
СЗ 1 35 км 9/6 1000 м
[Cu med, cong Ac trans Ci sp]
+23.2 +10.3 44 +25 +30 комфорт 1012.7 1000.4
Ю 1 35 км 9/6 1000 м
[Cu med, cong Cs]
+23.8 +10.8 44 +25 +31 комфорт 1012.5 1000.2
З 2 35 км 9/3 1000 м
[Cu med, cong Cs]
+23.6 +10.3 43 +25 +32 комфорт 1012.2 999.9
З 3 35 км 9/3 1500 м
[Cu med, cong Cs]
+23.2 +10.6 45 +25 +30 комфорт 1012.5 1000.2
З 2 35 км 6/3 1500 м
[Cb calv Ci sp]
+24.5 +10.4 41 +26 +29 жарко 1012.4 1000.1
Ю 2 35 км 5/3 1500 м
[Cb cap Ci sp]
+23.7 +9.7 41 +25 +27 комфорт 1012.4 1000.1
Местоположение метеостанции Варшава (Польша): широта 52.17 долгота 20.97 высота над уровнем моря 106 м.
В архиве по умолчанию представлена погода в Варшаве за последнюю неделю. Архивные данные за месяц целиком и за предыдущие месяцы, начиная с января 2011 года, Вы можете получить, выбрав интересующий диапазон дат из раскрывающегося списка и нажав кнопку "Найти!".
*Определитесь, кто Вы:
Внимание! Время в таблицах - всемирное. Для получения местного времени необходимо прибавить поправку, которая равна 1 ч.
Некоторые строки с данными для отдельных станций могут быть выделены курсивом. Это означает, что фактические данные отсутствуют по различным причинам, а приведенные значения являются расчетными модельными данными для данного пункта наблюдений.
Смотрите также архив погоды в соседних городах и на ближайших метеорологических станциях:
Партнеры нашего сайта:      
Пояснения к столбцам:
  • Ветер - указаны скорость ветра в м/с - средняя за 10 мин, порывы в срок и между сроками (в фигурных скобках) и направление, откуда дует ветер: С - северный,
  • СВ - северо-восточный, В - восточный, ЮВ - юго-восточный, Ю - южный, ЮЗ - юго-западный, З - западный, СЗ - северо-западный.
  • Видимость - горизонтальная дальность видимости в метрах или километрах. При видимости от 1 до 10 км при отсутствии осадков обычно наблюдается дымка, при ухудшении видимости до 1 км и менее - туман. В сухую погоду видимость может ухудшаться дымом, пылью или мглою.
  • Явления - указаны атмосферные явления, наблюдавшиеся в срок или в последний час перед сроком; фигурными скобками обозначены явления, наблюдавшиеся между сроками (за 1-3 часа до срока); квадратными скобками обозначены град или гололедные отложения с указанием их диаметра в мм.
  • Облачность - указаны через наклонную черту общая и нижняя облачность в баллах и высота нижней границы облаков в метрах; квадратными скобками обозначены формы облаков: Ci - перистые, Cs - перисто-слоистые, Cc - перисто-кучевые, Ac - высококучевые, As - высокослоистые, Sc - слоисто-кучевые, Ns - слоисто-дождевые, Cu - кучевые, Cb - кучево-дождевые. Подробнее классификацию облаков см. в Атласе облаков (PDF).
  • T - Температура воздуха - температура, измеренная на высоте 2 м над землей.
  • Td - Температура точки росы - температура, при понижении до которой содержащийся в воздухе водяной пар достигнет насыщения.
  • f - Относительная влажность воздуха - влажноcть воздуха, измеренная на высоте 2 м над землей.
  • Te - Эффективная температура - температура, которую ощущает одетый по сезону человек в тени. Характеристика душности погоды. При расчете учитывается влияние влажности воздуха и скорости ветра на теплоощущения человека.
  • Tes - Эффективная температура на солнце - температура, которую ощущает человек, с поправкой на солнечный нагрев. Характеристика знойности погоды. Зависит от высоты солнца над горизонтом, облачности и скорости ветра. Ночью, в пасмурную погоду, а также при ветре 12 м/с и более поправка равна нулю.
  • P - Атмосферное давление - приведенное к уровню моря атмосферное давление.
  • Po - Атмосферное давление - измеренное на уровне метеостанции атмосферное давление.
  • Tmin - Минимальная температура - минимум температуры воздуха на высоте 2 м над землей.
  • Tmax - Максимальная температура - максимум температуры воздуха на высоте 2 м над землей.
  • R - Количество осадков - Количество выпавших осадков за период времени, мм. При наведении курсора мыши на число - период времени, за который выпало указанное количество осадков.
  • R24 - Количество осадков - Количество выпавших осадков за 24 часа, мм.
  • S - Снежный покров - Высота снежного покрова, см. При наведении курсора мыши на число - состояние снежного покрова и степень покрытия местности в баллах.